This demonstration page uses our WeatherBlox Daily Observations layout. Learn more.

Left ArrowRight Arrow

36.17497, -115.13722

Hourly Observations for April 14, 2017

Temp ( °F °C ) Dew Point ( °F °C ) Humidity (%) Winds ( mph kmh ) Pressure ( in mb ) Visibility ( mi km ) Precip ( " mm )
12:53 am 00:53 Clear 62 16.7 31 -0.6 31 31 WSW 7 11 29.81 1009 10 16.0934 N/A
1:53 am 01:53 Clear 59 15 30 -1.1 33 33 S 5 7 29.83 1010 10 16.0934 N/A
2:53 am 02:53 Clear 58 14.4 28 -2.2 32 32 N N/A 29.84 1011 10 16.0934 N/A
3:53 am 03:53 Clear 56 13.3 28 -2.2 34 34 ESE 3 6 29.85 1011 10 16.0934 N/A
4:53 am 04:53 Clear 56 13.3 29 -1.7 36 36 NNW 9 15 29.86 1011 10 16.0934 N/A
5:53 am 05:53 Clear 56 13.3 28 -2.2 34 34 N 13 20 29.88 1012 10 16.0934 N/A
6:53 am 06:53 Sunny 56 13.3 28 -2.2 34 34 N 9 15 29.91 1013 10 16.0934 N/A
7:53 am 07:53 Sunny 59 15 27 -2.8 29 29 NNW 15 24 29.92 1013 10 16.0934 N/A
8:53 am 08:53 Sunny 63 17.2 29 -1.7 28 28 N 20 31 29.92 1013 10 16.0934 N/A
9:53 am 09:53 Sunny 65 18.3 29 -1.7 26 26 NNE 13 20 29.93 1014 10 16.0934 N/A
10:53 am 10:53 Sunny 67 19.4 29 -1.7 24 24 ENE 8 13 29.94 1014 10 16.0934 N/A
11:53 am 11:53 Sunny 69 20.6 29 -1.7 22 22 ESE 7 11 29.92 1013 10 16.0934 N/A
12:53 pm 12:53 Sunny 70 21.1 28 -2.2 21 21 WSW 5 7 29.9 1013 10 16.0934 N/A
1:53 pm 13:53 Sunny 72 22.2 27 -2.8 19 19 N N/A 29.89 1012 10 16.0934 N/A
2:53 pm 14:53 Sunny 74 23.3 28 -2.2 18 18 W 5 7 29.87 1012 10 16.0934 N/A
3:53 pm 15:53 Sunny 75 23.9 28 -2.2 18 18 SSW 8 13 29.85 1011 10 16.0934 N/A
4:53 pm 16:53 Sunny 75 23.9 27 -2.8 17 17 WSW 5 7 29.85 1011 10 16.0934 N/A
5:53 pm 17:53 Sunny 76 24.4 28 -2.2 17 17 VRB 6 9 29.84 1011 10 16.0934 N/A
6:53 pm 18:53 Sunny 75 23.9 22 -5.6 14 14 NNW 9 15 29.84 1011 10 16.0934 N/A
7:53 pm 19:53 Clear 73 22.8 20 -6.7 13 13 NW 7 11 29.86 1011 10 16.0934 N/A
8:53 pm 20:53 Clear 71 21.7 22 -5.6 16 16 WSW 6 9 29.88 1012 10 16.0934 N/A
9:53 pm 21:53 Clear 68 20 22 -5.6 17 17 NNW 6 9 29.9 1013 10 16.0934 N/A
10:53 pm 22:53 Clear 68 20 21 -6.1 17 17 NW 13 20 29.9 1013 10 16.0934 N/A
11:53 pm 23:53 Clear 66 18.9 21 -6.1 18 18 N 13 20 29.91 1013 10 16.0934 N/A

Powered by AerisWeather